Weather History for Slayton, MN

Change the Weather History Date:

Saturday, February 22, 2014

  Actual Average (KOTG) Record (KOTG)
Temperature  
Mean Temperature 12 °F -  
Max Temperature 20 °F 28 °F 57 °F (1977)
Min Temperature 5 °F 15 °F -5 °F (1986)
Degree Days  
Heating Degree Days 52    
Moisture  
Dew Point 5 °F    
Average Humidity 73    
Maximum Humidity 82    
Minimum Humidity 65    
Precipitation  
Precipitation 0.00 in - - ()
Sea Level Pressure  
Sea Level Pressure 29.99 in    
Wind  
Wind Speed 11 mph (WNW)    
Max Wind Speed 20 mph    
Max Gust Speed 22 mph    
Visibility 10 miles    
Events      
Averages and records for this station are not official NWS values.
T = Trace of Precipitation, MM = Missing Value Source: NWS Daily Summary

Daily Weather History Graph

Daily Weather History Graph

Search for Another Location

Airport:

Trip Planner

Search our weather history database for the weather conditions in past years. The results will help you decide how hot, cold, wet, or windy it might be!

Date:

Astronomy

Feb. 22, 2014 Rise Set
Actual Time 7:11 AM CST 6:02 PM CST
Civil Twilight 6:42 AM CST 6:31 PM CST
Nautical Twilight 6:08 AM CST 7:05 PM CST
Astronomical Twilight 5:35 AM CST 7:38 PM CST
Moon 1:12 AM CST (2/22) 11:08 AM CST (2/22)
Length of Visible Light 11h 49m
Length of Day
10h 50m
Waning Gibbous, 50% of the Moon is Illuminated
Feb 22
Waning Gibbous
Mar 1
New
Mar 8
First Quarter
Mar 16
Full
Mar 23
Last Quarter

Hourly Weather History & Observations

Time (CST) Temp. Windchill Dew Point Humidity Pressure Visibility Wind Dir Wind Speed Gust Speed Precip Events Conditions
12:15 AM 11.8 °F -2.3 °F 4.6 °F 73% 29.82 in 10.0 mi WNW 11.5 mph - N/A   Clear
12:34 AM 10.8 °F -2.0 °F 4.1 °F 75% 29.82 in 10.0 mi WNW 9.2 mph - N/A   Clear
12:54 AM 10.6 °F -3.8 °F 3.7 °F 74% 29.83 in 10.0 mi WNW 11.5 mph - N/A   Clear
1:15 AM 10.4 °F -1.5 °F 3.0 °F 72% 29.84 in 10.0 mi WNW 8.1 mph - N/A   Clear
1:35 AM 10.0 °F -1.9 °F 2.3 °F 71% 29.85 in 10.0 mi WNW 8.1 mph - N/A   Clear
1:54 AM 9.9 °F -4.0 °F 2.3 °F 71% 29.86 in 10.0 mi WNW 10.4 mph - N/A   Clear
2:14 AM 9.5 °F -1.5 °F 2.3 °F 73% 29.86 in 10.0 mi WNW 6.9 mph - N/A   Clear
2:35 AM 9.3 °F -3.8 °F 2.1 °F 73% 29.85 in 10.0 mi NW 9.2 mph - N/A   Clear
2:54 AM 9.5 °F -5.2 °F 2.1 °F 72% 29.86 in 10.0 mi NW 11.5 mph - N/A   Clear
3:14 AM 9.1 °F -3.0 °F 2.1 °F 73% 29.87 in 10.0 mi West 8.1 mph - N/A   Clear
3:34 AM 7.2 °F -3.0 °F 1.0 °F 76% 29.88 in 10.0 mi SW 5.8 mph - N/A   Clear
3:54 AM 6.8 °F - 0.5 °F 75% 29.88 in 10.0 mi Calm Calm - N/A   Clear
4:14 AM 7.3 °F -1.3 °F 0.7 °F 74% 29.88 in 10.0 mi West 4.6 mph - N/A   Clear
4:34 AM 6.8 °F -3.5 °F 0.5 °F 75% 29.89 in 10.0 mi West 5.8 mph - N/A   Clear
4:54 AM 5.9 °F -5.8 °F 0.5 °F 78% 29.90 in 10.0 mi WSW 6.9 mph - N/A   Clear
5:15 AM 6.8 °F -5.9 °F 0.5 °F 75% 29.92 in 10.0 mi West 8.1 mph - N/A   Clear
5:34 AM 7.9 °F -5.5 °F 1.6 °F 75% 29.92 in 10.0 mi WSW 9.2 mph - N/A   Mostly Cloudy
5:55 AM 8.4 °F -5.7 °F 1.9 °F 75% 29.93 in 10.0 mi West 10.4 mph - N/A   Overcast
6:14 AM 8.6 °F -3.7 °F 2.3 °F 76% 29.93 in 10.0 mi West 8.1 mph - N/A   Overcast
6:33 AM 7.7 °F -5.8 °F 1.8 °F 77% 29.92 in 10.0 mi NW 9.2 mph - N/A   Scattered Clouds
6:54 AM 6.4 °F -2.4 °F 1.4 °F 80% 29.93 in 10.0 mi NW 4.6 mph - N/A   Clear
7:14 AM 5.9 °F -4.5 °F 1.0 °F 80% 29.93 in 10.0 mi WNW 5.8 mph - N/A   Clear
7:34 AM 6.8 °F -5.9 °F 0.9 °F 77% 29.95 in 10.0 mi West 8.1 mph - N/A   Clear
7:55 AM 7.0 °F -3.3 °F 0.9 °F 76% 29.96 in 10.0 mi WSW 5.8 mph - N/A   Clear
8:15 AM 7.7 °F -6.6 °F 1.4 °F 75% 29.97 in 10.0 mi West 10.4 mph - N/A   Clear
8:35 AM 8.6 °F -1.3 °F 1.8 °F 74% 29.98 in 10.0 mi West 5.8 mph - N/A   Clear
8:54 AM 9.1 °F -7.0 °F 1.9 °F 73% 29.98 in 10.0 mi West 13.8 mph - N/A   Clear
9:14 AM 9.7 °F -5.0 °F 2.3 °F 72% 29.98 in 10.0 mi West 11.5 mph - N/A   Clear
9:34 AM 10.8 °F -3.6 °F 3.0 °F 71% 29.99 in 10.0 mi West 11.5 mph - N/A   Clear
9:55 AM 11.5 °F -3.4 °F 3.2 °F 69% 29.99 in 10.0 mi West 12.7 mph - N/A   Clear
10:14 AM 11.8 °F -3.6 °F 3.4 °F 69% 29.99 in 10.0 mi West 13.8 mph - N/A   Clear
10:34 AM 12.2 °F -3.7 °F 3.9 °F 69% 29.99 in 10.0 mi WNW 15.0 mph - N/A   Clear
10:54 AM 13.5 °F -2.1 °F 4.8 °F 68% 29.99 in 10.0 mi West 15.0 mph - N/A   Clear
11:14 AM 13.8 °F -1.7 °F 5.2 °F 69% 30.00 in 10.0 mi West 15.0 mph - N/A   Clear
11:34 AM 14.2 °F -1.7 °F 5.7 °F 69% 30.00 in 10.0 mi West 16.1 mph - N/A   Clear
11:54 AM 14.9 °F -0.3 °F 6.4 °F 69% 30.02 in 10.0 mi West 15.0 mph - N/A   Clear
12:14 PM 15.3 °F -0.4 °F 6.6 °F 69% 30.01 in 10.0 mi West 16.1 mph - N/A   Clear
12:34 PM 16.3 °F 0.5 °F 7.5 °F 68% 30.00 in 10.0 mi West 17.3 mph - N/A   Clear
12:55 PM 17.1 °F 2.0 °F 8.2 °F 68% 30.00 in 10.0 mi WNW 16.1 mph - N/A   Clear
1:15 PM 16.5 °F 1.8 °F 7.5 °F 68% 30.00 in 10.0 mi WNW 15.0 mph - N/A   Clear
1:34 PM 18.1 °F 6.3 °F 8.6 °F 66% 30.00 in 10.0 mi West 10.4 mph - N/A   Clear
1:53 PM 18.9 °F 4.8 °F 9.5 °F 67% 30.00 in 10.0 mi West 15.0 mph - N/A   Clear
2:15 PM 19.8 °F 5.9 °F 10.4 °F 67% 30.00 in 10.0 mi WNW 15.0 mph - N/A   Clear
2:34 PM 20.1 °F 5.4 °F 10.4 °F 66% 30.00 in 10.0 mi WNW 17.3 mph - N/A   Clear
2:55 PM 20.3 °F 4.8 °F 10.6 °F 66% 30.00 in 10.0 mi WNW 19.6 mph - N/A   Clear
3:14 PM 20.7 °F 5.7 °F 11.1 °F 67% 30.00 in 10.0 mi West 18.4 mph - N/A   Clear
3:34 PM 20.7 °F 5.7 °F 10.8 °F 66% 30.01 in 10.0 mi West 18.4 mph - N/A   Clear
3:54 PM 20.3 °F 6.1 °F 10.2 °F 65% 30.02 in 10.0 mi West 16.1 mph 21.9 mph N/A   Clear
4:15 PM 20.3 °F 5.7 °F 10.4 °F 66% 30.02 in 10.0 mi WNW 17.3 mph - N/A   Clear
4:34 PM 20.1 °F 6.4 °F 10.6 °F 67% 30.02 in 10.0 mi WNW 15.0 mph - N/A   Clear
4:54 PM 19.9 °F 6.2 °F 10.4 °F 67% 30.03 in 10.0 mi WNW 15.0 mph - N/A   Clear
5:14 PM 19.6 °F 5.7 °F 10.4 °F 68% 30.03 in 10.0 mi WNW 15.0 mph - N/A   Clear
5:34 PM 19.2 °F 5.8 °F 10.4 °F 69% 30.04 in 10.0 mi WNW 13.8 mph - N/A   Clear
5:54 PM 18.1 °F 5.6 °F 10.4 °F 72% 30.04 in 10.0 mi WNW 11.5 mph - N/A   Clear
6:14 PM 17.2 °F 5.2 °F 10.4 °F 75% 30.05 in 10.0 mi WNW 10.4 mph - N/A   Clear
6:35 PM 16.3 °F 4.1 °F 10.4 °F 77% 30.06 in 10.0 mi WNW 10.4 mph - N/A   Clear
6:54 PM 15.8 °F 4.2 °F 9.5 °F 76% 30.07 in 10.0 mi WNW 9.2 mph - N/A   Clear
7:15 PM 15.3 °F 2.8 °F 8.6 °F 75% 30.09 in 10.0 mi WNW 10.4 mph - N/A   Clear
7:35 PM 13.3 °F 2.0 °F 7.7 °F 78% 30.09 in 10.0 mi WNW 8.1 mph - N/A   Clear
7:55 PM 12.6 °F 0.2 °F 7.9 °F 82% 30.09 in 10.0 mi NW 9.2 mph - N/A   Clear
8:13 PM 13.1 °F 0.1 °F 7.7 °F 79% 30.10 in 10.0 mi WNW 10.4 mph - N/A   Clear
8:34 PM 13.1 °F -2.0 °F 7.7 °F 79% 30.10 in 10.0 mi NW 13.8 mph - N/A   Clear
8:54 PM 13.1 °F -0.7 °F 7.3 °F 78% 30.11 in 10.0 mi NW 11.5 mph - N/A   Clear
9:14 PM 12.6 °F -2.0 °F 6.8 °F 78% 30.12 in 10.0 mi WNW 12.7 mph - N/A   Clear
9:34 PM 12.2 °F -3.1 °F 6.3 °F 77% 30.13 in 10.0 mi WNW 13.8 mph - N/A   Clear
9:54 PM 12.7 °F -3.0 °F 5.7 °F 74% 30.13 in 10.0 mi WNW 15.0 mph - N/A   Scattered Clouds
10:14 PM 11.8 °F -4.2 °F 5.4 °F 75% 30.13 in 10.0 mi WNW 15.0 mph - N/A   Clear
10:34 PM 11.3 °F -3.6 °F 5.0 °F 76% 30.14 in 10.0 mi WNW 12.7 mph - N/A   Clear
10:55 PM 10.9 °F -5.4 °F 4.1 °F 74% 30.14 in 10.0 mi WNW 15.0 mph - N/A   Clear
11:15 PM 10.2 °F -5.0 °F 4.1 °F 76% 30.15 in 10.0 mi NW 12.7 mph - N/A   Clear
11:34 PM 9.7 °F -5.0 °F 3.9 °F 77% 30.15 in 10.0 mi NW 11.5 mph - N/A   Clear
11:54 PM 10.0 °F -6.5 °F 3.7 °F 76% 30.15 in 10.0 mi NW 15.0 mph - N/A   Clear